{"data":{"norad_id":68679,"intl_designator":"2026-077T","name":"STARLINK-37310","alt_names":[],"object_type":"PAYLOAD","status":"ACTIVE","operator":null,"country":"US","launch_date":"2026-04-11","launch_site_code":"AFWTR","launch_vehicle":null,"mission":null,"orbit_class":"UNKNOWN","rcs_meters":null,"size_class":null,"mass_kg":null,"dimensions":null,"purposes":["comms"],"wikipedia_slug":null,"has_3d_model":false,"image_url":null,"decayed_at":null,"tle_current":{"epoch":"2026-05-25T02:49:51.845952Z","epoch_age_seconds":58699,"freshness":"FRESH","line1":"1 68679U 26077T   26145.11796118  .00018685  00000+0  57933-3 0  9997","line2":"2 68679  97.2850  16.7358 0001466  92.9670 267.1741 15.33462983  6872","mean_motion":15.33462983,"eccentricity":0.0001466,"inclination_deg":97.285,"raan_deg":16.7358,"arg_perigee_deg":92.967,"mean_anomaly_deg":267.1741,"bstar":0.00057933,"rev_number":687,"period_min":93.905103413898,"perigee_km":464.48639457527,"apogee_km":466.49294591498,"semimajor_km":6843.6266702451,"source":"CELESTRAK","updated_at":"2026-05-25T13:38:21.995314Z"}}}